[[{"header":{"parameterUnit":"m.s-1","parameterCategory":1,"la1":30.2991,"la2":30.254,"lo1":-89.0895,"lo2":-89.0444,"dy":0.0017,"dx":0.0017,"nx":28,"ny":28,"refTime":"2025-04-22T21:00:00:Z","depth":0,"parameterNumber":2,"parameterNumberName":"U-component_of_WINDS"},"data":[0,0,0,0,0,0,0,0,0,0,0,0,0,0,0,0,0,0,0,0,0,0,0,0,0,0,0,0,0,0,0,0,0,0,0,0,0,0,0,0,0,0,0,0,0,0,0,0,0,0,0,0,0,0,0,0,0,0,-1.1403,-1.1403,0,-1.1437,-1.1437,-1.1437,-1.1444,-1.1444,-1.1443,-1.1443,-1.1479,-1.148,-1.1481,0,0,0,0,0,0,0,0,0,0,0,0,0,-1.1346,-1.1347,-1.1403,-1.1403,-1.1404,-1.1437,-1.1437,-1.1438,-1.1444,-1.1444,-1.1443,-1.1443,-1.1479,-1.148,-1.1481,0,0,0,0,0,0,0,0,0,0,0,0,0,-1.1374,-1.1348,-1.1403,-1.1411,-1.1412,-1.1437,-1.1437,-1.1438,-1.1444,-1.1444,-1.1443,-1.1443,-1.1478,-1.148,-1.1482,-1.1501,0,0,-1.1487,-1.1488,0,0,0,0,0,0,0,0,-1.1373,-1.1377,-1.1409,-1.1411,-1.1412,-1.1436,-1.143,-1.1459,-1.1444,-1.1432,-1.1443,-1.1443,-1.1465,-1.1468,-1.1475,-1.1503,-1.1504,-1.1487,-1.1488,-1.1489,-1.149,0,0,0,0,0,0,0,-1.1371,-1.1375,-1.1416,-1.141,-1.1411,-1.1414,-1.1417,-1.1436,-1.145,-1.1433,-1.1434,-1.1437,-1.1466,-1.1473,-1.1476,-1.1505,-1.1487,-1.1489,-1.149,-1.1491,-1.155,-1.155,0,0,0,0,0,0,-1.1367,-1.1373,-1.1415,-1.1417,-1.1391,-1.1415,-1.1419,-1.1428,-1.145,-1.1453,-1.1438,-1.1438,-1.147,-1.1474,-1.1477,-1.1501,-1.1489,-1.1491,-1.1492,-1.1549,-1.155,-1.155,0,0,0,0,0,0,-1.1366,-1.1371,-1.1414,-1.1396,-1.1401,-1.1416,-1.1427,-1.1429,-1.1437,-1.1454,-1.1456,-1.1443,-1.147,-1.1475,-1.1495,-1.1502,-1.1492,-1.1493,-1.1549,-1.1549,-1.155,-1.1549,0,0,0,0,0,0,-1.1364,-1.137,-1.1377,-1.1396,-1.1402,-1.1431,-1.1427,-1.143,-1.144,-1.144,-1.1459,-1.1462,-1.147,-1.1492,-1.1497,-1.1505,-1.1495,-1.1548,-1.1549,-1.155,-1.1548,-1.1549,-1.155,0,0,0,0,0,-1.1362,-1.1376,-1.1378,-1.1383,-1.1411,-1.1431,-1.1435,-1.1444,-1.1441,-1.1448,-1.1459,-1.1461,-1.1501,-1.1494,-1.1499,-1.1508,-1.1547,-1.1549,-1.155,-1.1548,-1.1549,-1.155,0,0,0,0,0,0,-1.1359,-1.1379,-1.1381,-1.1401,-1.1414,-1.1432,-1.1442,-1.1445,-1.146,-1.1459,-1.147,-1.1474,-1.1494,-1.1503,-1.1495,-1.1528,-1.1524,-1.1526,-1.1521,-1.1522,-1.1523,-1.152,-1.1496,0,0,0,0,0,-1.1361,-1.1374,-1.1391,-1.1407,-1.1414,-1.1426,-1.1435,-1.1441,-1.1455,-1.1461,-1.1473,-1.1488,-1.1503,-1.1513,-1.1529,-1.155,-1.1554,-1.1558,-1.1559,-1.156,-1.1562,-1.1573,-1.1575,-1.1554,-1.1554,-1.1554,0,0,-1.1364,-1.1376,-1.1385,-1.1407,-1.1418,-1.1432,-1.1431,-1.1447,-1.1458,-1.1464,-1.1483,-1.1493,-1.151,-1.153,-1.154,-1.1538,-1.1569,-1.1561,-1.1562,-1.1563,-1.1575,-1.1577,-1.1579,-1.1554,-1.1554,-1.1554,0,0,-1.1378,-1.1388,-1.1403,-1.1414,-1.143,-1.1439,-1.1442,-1.146,-1.1466,-1.1486,-1.149,-1.1504,-1.1531,-1.1542,-1.1552,-1.157,-1.1573,-1.1575,-1.158,-1.1591,-1.1593,-1.1595,-1.1601,-1.1603,-1.1576,-1.1576,-1.1576,0,-1.138,-1.1401,-1.141,-1.1425,-1.1435,-1.1441,-1.1456,-1.1466,-1.1487,-1.1494,-1.1492,-1.1525,-1.1537,-1.156,-1.1565,-1.1572,-1.1577,-1.1572,-1.1592,-1.1594,-1.1595,-1.1601,-1.1604,-1.1576,-1.1576,-1.1576,-1.1576,0,-1.1403,-1.1418,-1.1428,-1.1447,-1.1458,-1.1473,-1.1484,-1.1495,-1.1499,-1.1508,-1.1528,-1.1543,-1.1561,-1.1567,-1.1572,-1.1591,-1.1589,-1.159,-1.1586,-1.1597,-1.1603,-1.1605,-1.1577,-1.1577,-1.1577,-1.1576,0,0,-1.1415,-1.1439,-1.1442,-1.1451,-1.147,-1.1482,-1.1497,-1.1515,-1.1523,-1.1537,-1.1551,-1.1573,-1.1573,-1.1584,-1.1591,-1.16,-1.1614,-1.16,-1.16,-1.1601,-1.1635,-1.1634,-1.1637,-1.1616,-1.1616,-1.1617,-1.1634,0,-1.1431,-1.1458,-1.1466,-1.1489,-1.1503,-1.1509,-1.1522,-1.1535,-1.1544,-1.1557,-1.1567,-1.1583,-1.1582,-1.1589,-1.1599,-1.161,-1.162,-1.1609,-1.1628,-1.1629,-1.1623,-1.164,-1.164,-1.1655,-1.1636,-1.1636,-1.1637,0,-1.1452,-1.1466,-1.149,-1.1507,-1.1513,-1.1525,-1.1541,-1.1554,-1.1569,-1.1575,-1.1587,-1.1592,-1.1609,-1.1605,-1.1628,-1.162,-1.1629,-1.1636,-1.1636,-1.1638,-1.1633,-1.1642,-1.166,-1.1662,-1.164,-1.164,-1.164,0,-1.1458,-1.1483,-1.1501,-1.1508,-1.1528,-1.1536,-1.1545,-1.156,-1.1569,-1.1584,-1.1591,-1.1608,-1.1617,-1.163,-1.164,-1.1636,-1.1662,-1.1659,-1.1667,-1.1667,-1.1672,-1.1672,-1.1691,-1.1679,-1.1679,-1.1679,-1.1679,0,-1.1475,-1.1489,-1.1503,-1.1514,-1.153,-1.154,-1.1556,-1.1566,-1.1579,-1.1592,-1.1598,-1.161,-1.1623,-1.1637,-1.1645,-1.1663,-1.1668,-1.1673,-1.1675,-1.1672,-1.1671,-1.1677,-1.1676,-1.1679,-1.1679,-1.1679,-1.1679,0,-1.1484,-1.1494,-1.1513,-1.1531,-1.1535,-1.1547,-1.1562,-1.1572,-1.1581,-1.1598,-1.1602,-1.1616,-1.1633,-1.1645,-1.1666,-1.1672,-1.1691,-1.1693,-1.1686,-1.1687,-1.1694,-1.1693,-1.1718,-1.1722,-1.1707,-1.1707,-1.1707,0,-1.1493,-1.1504,-1.1522,-1.1531,-1.154,-1.1554,-1.1564,-1.1574,-1.1584,-1.1602,-1.1611,-1.1628,-1.1642,-1.1669,-1.1682,-1.1698,-1.17,-1.1708,-1.1703,-1.17,-1.17,-1.1699,-1.17,-1.1709,-1.1709,-1.1709,-1.1709,0,-1.1509,-1.1513,-1.1527,-1.1542,-1.1554,-1.1567,-1.158,-1.1587,-1.16,-1.1611,-1.1627,-1.1638,-1.166,-1.1677,-1.1695,-1.1705,-1.1709,-1.171,-1.1713,-1.171,-1.1705,-1.1708,-1.1687,-1.171,-1.171,-1.171,-1.171,-1.171,-1.1519,-1.1528,-1.1543,-1.1558,-1.1568,-1.158,-1.1591,-1.1601,-1.1615,-1.1633,-1.1639,-1.1656,-1.1671,-1.1696,-1.1706,-1.172,-1.1719,-1.1723,-1.1724,-1.1725,-1.1725,-1.1703,-1.1723,-1.1723,-1.1723,-1.1723,-1.1723,0,-1.1534,-1.1543,-1.1557,-1.1575,-1.1586,-1.1589,-1.1604,-1.1613,-1.1628,-1.1642,-1.1656,-1.1675,-1.1691,-1.1705,-1.1722,-1.1731,-1.1733,-1.1735,-1.1734,-1.1736,-1.1724,-1.172,-1.1733,-1.1733,-1.1733,-1.1733,-1.1733,-1.1733,-1.1544,-1.156,-1.1567,-1.1589,-1.1598,-1.1615,-1.1623,-1.1634,-1.1645,-1.1666,-1.1679,-1.1688,-1.1702,-1.172,-1.1735,-1.1739,-1.1745,-1.1746,-1.175,-1.1738,-1.1737,-1.1736,-1.1732,-1.1747,-1.1747,-1.1761,-1.1761,-1.1761]},{"header":{"parameterUnit":"m.s-1","parameterCategory":1,"la1":30.2991,"la2":30.254,"lo1":-89.0895,"lo2":-89.0444,"dy":0.0017,"dx":0.0017,"nx":28,"ny":28,"refTime":"2025-04-22T21:00:00:Z","depth":0,"parameterNumber":3,"parameterNumberName":"V-component_of_WINDS"},"data":[0,0,0,0,0,0,0,0,0,0,0,0,0,0,0,0,0,0,0,0,0,0,0,0,0,0,0,0,0,0,0,0,0,0,0,0,0,0,0,0,0,0,0,0,0,0,0,0,0,0,0,0,0,0,0,0,0,0,2.3382,2.3383,0,2.3406,2.3406,2.3406,2.3379,2.3378,2.3377,2.3376,2.34,2.3401,2.3403,0,0,0,0,0,0,0,0,0,0,0,0,0,2.3315,2.3317,2.3382,2.3383,2.3383,2.3406,2.3406,2.3406,2.3379,2.3378,2.3377,2.3376,2.3399,2.3401,2.3403,0,0,0,0,0,0,0,0,0,0,0,0,0,2.3342,2.3317,2.3382,2.3372,2.3372,2.3406,2.3406,2.3406,2.3379,2.3378,2.3376,2.3375,2.3398,2.3401,2.3403,2.3448,0,0,2.341,2.3411,0,0,0,0,0,0,0,0,2.3341,2.3345,2.3373,2.3373,2.3372,2.3388,2.3391,2.342,2.338,2.3376,2.3376,2.3374,2.3397,2.3399,2.3407,2.3449,2.345,2.341,2.3412,2.3413,2.3414,0,0,0,0,0,0,0,2.3339,2.3343,2.3392,2.3374,2.3373,2.3367,2.3369,2.3396,2.3395,2.3377,2.3375,2.3378,2.3396,2.3405,2.3407,2.345,2.341,2.3412,2.3414,2.3415,2.3531,2.3533,0,0,0,0,0,0,2.3338,2.3342,2.3391,2.3392,2.3352,2.3369,2.3372,2.3384,2.3395,2.3395,2.3379,2.3377,2.3401,2.3405,2.3408,2.3461,2.3413,2.3415,2.3416,2.353,2.3532,2.3534,0,0,0,0,0,0,2.3337,2.3343,2.339,2.3367,2.3372,2.3372,2.3387,2.3386,2.3394,2.3396,2.3396,2.3388,2.34,2.3405,2.3438,2.3462,2.3416,2.3418,2.3528,2.353,2.3533,2.3569,0,0,0,0,0,0,2.3335,2.3342,2.3359,2.3367,2.3374,2.342,2.3388,2.3387,2.3398,2.3395,2.3405,2.3405,2.34,2.3435,2.3441,2.3464,2.342,2.3526,2.3529,2.3532,2.3565,2.3572,2.3578,0,0,0,0,0,2.3333,2.3368,2.336,2.3366,2.3395,2.3421,2.3425,2.3418,2.34,2.3417,2.3419,2.3404,2.3459,2.3439,2.3445,2.347,2.3524,2.3528,2.3532,2.3563,2.3571,2.3578,0,0,0,0,0,0,2.3362,2.3369,2.336,2.3399,2.341,2.3417,2.3438,2.3427,2.3443,2.3439,2.343,2.3433,2.3469,2.3473,2.345,2.3514,2.3489,2.3494,2.351,2.3518,2.3524,2.3522,2.3422,0,0,0,0,0,2.3374,2.3395,2.3399,2.3434,2.3439,2.3438,2.3449,2.3443,2.3454,2.3458,2.3462,2.3473,2.3493,2.3505,2.3524,2.3566,2.3568,2.3586,2.3593,2.3598,2.3602,2.3626,2.3634,2.3546,2.3546,2.3546,0,0,2.3397,2.3403,2.3417,2.344,2.3447,2.3469,2.3442,2.3466,2.3482,2.3462,2.3494,2.3498,2.3509,2.3548,2.3565,2.3552,2.3627,2.3603,2.3607,2.3608,2.363,2.3639,2.3646,2.3549,2.3548,2.3548,0,0,2.345,2.3457,2.3487,2.3495,2.3507,2.3506,2.3513,2.3522,2.3523,2.3555,2.3541,2.356,2.3594,2.3603,2.3612,2.3671,2.3658,2.3677,2.3709,2.3732,2.3739,2.3745,2.3766,2.3774,2.3681,2.3681,2.3682,0,2.3478,2.351,2.3503,2.3529,2.3539,2.3522,2.3552,2.3561,2.3578,2.3586,2.3572,2.3614,2.3621,2.3661,2.3676,2.3684,2.3692,2.3675,2.3739,2.3745,2.375,2.377,2.3778,2.3684,2.3683,2.3683,2.3683,0,2.3543,2.3566,2.3589,2.3606,2.3619,2.3647,2.3644,2.3659,2.3652,2.3653,2.3686,2.3694,2.3713,2.3723,2.3717,2.3763,2.3755,2.374,2.3714,2.3761,2.3779,2.3787,2.3687,2.3686,2.3685,2.3685,0,0,2.3615,2.3629,2.3637,2.3645,2.3657,2.3675,2.3703,2.3722,2.3735,2.3748,2.377,2.38,2.3786,2.3797,2.3792,2.3812,2.3858,2.3794,2.3794,2.3806,2.391,2.3921,2.393,2.385,2.3852,2.3853,2.3909,0,2.3668,2.3715,2.371,2.3755,2.3777,2.3761,2.3785,2.3796,2.3798,2.3816,2.3818,2.3839,2.382,2.3826,2.3846,2.3848,2.3879,2.3844,2.3871,2.3872,2.3868,2.3939,2.3951,2.4003,2.3916,2.3917,2.3918,0,2.3736,2.3752,2.3799,2.3809,2.3818,2.3839,2.3857,2.3875,2.3887,2.3887,2.39,2.3891,2.3919,2.3893,2.3932,2.3909,2.392,2.3923,2.3925,2.3927,2.3898,2.3943,2.402,2.4028,2.393,2.3929,2.3928,0,2.3784,2.3817,2.3849,2.3857,2.3869,2.3885,2.3891,2.3901,2.3913,2.3929,2.3937,2.3956,2.3966,2.3982,2.3979,2.396,2.4018,2.3992,2.4019,2.4019,2.4031,2.403,2.4111,2.404,2.4039,2.4039,2.4039,0,2.3844,2.3873,2.3871,2.3891,2.3923,2.3918,2.3951,2.3955,2.3964,2.3985,2.3974,2.3993,2.3989,2.4009,2.4007,2.4039,2.4044,2.4045,2.4044,2.4046,2.4046,2.4052,2.4048,2.4041,2.4041,2.4041,2.404,0,2.3902,2.3901,2.3936,2.3945,2.3948,2.3972,2.398,2.3999,2.4,2.4027,2.4033,2.4035,2.4058,2.4057,2.4083,2.4082,2.4122,2.4117,2.4118,2.4116,2.4143,2.4141,2.4231,2.4242,2.4164,2.4164,2.4165,0,2.3939,2.3962,2.3974,2.3987,2.3994,2.4015,2.4028,2.4024,2.4037,2.4053,2.4071,2.4093,2.411,2.4148,2.4152,2.4172,2.4167,2.4197,2.417,2.4171,2.4167,2.4166,2.4168,2.4202,2.4203,2.4204,2.4204,0,2.4007,2.4006,2.4024,2.4043,2.4059,2.4073,2.4087,2.4098,2.4096,2.4112,2.4135,2.4149,2.4176,2.4198,2.4217,2.4224,2.4214,2.4213,2.422,2.4222,2.4221,2.4222,2.4132,2.4211,2.421,2.421,2.4209,2.4209,2.4055,2.4075,2.4086,2.4108,2.4117,2.4131,2.4149,2.4153,2.4172,2.4194,2.4191,2.4217,2.423,2.4255,2.4263,2.4284,2.4274,2.4284,2.4287,2.4289,2.4292,2.4219,2.4288,2.4288,2.4287,2.4287,2.4287,0,2.4122,2.4129,2.4149,2.4168,2.4185,2.4175,2.4189,2.4204,2.4227,2.424,2.4257,2.4285,2.4307,2.4313,2.4334,2.435,2.4346,2.4355,2.4354,2.4356,2.43,2.4292,2.4358,2.4358,2.4358,2.4358,2.4358,2.4358,2.4159,2.4191,2.4191,2.4228,2.4235,2.4261,2.427,2.4283,2.4292,2.4323,2.4342,2.4346,2.4356,2.4378,2.4398,2.4399,2.4407,2.4419,2.4418,2.4367,2.4359,2.4353,2.4345,2.4421,2.4421,2.4472,2.4472,2.4473]}]]